This is the latest recevied weather packets stored in our database for station/object LZ1NAG-10. If no packets are shown the sender has not sent any weather packets the latest 10 day(s).
| Time | Temp. | Humidity | Pressure | Rain* | Wind** | Luminosity | Snow |
|---|---|---|---|---|---|---|---|
| 1777771032 | 1.11° C | 55% | 1023.7 hPa | - | - | - | - |
| 1777770131 | 1.11° C | 55% | 1023.9 hPa | - | - | - | - |
| 1777769231 | 1.67° C | 55% | 1023.7 hPa | - | - | - | - |
| 1777768331 | 2.22° C | 55% | 1023.5 hPa | - | - | - | - |
| 1777767431 | 1.67° C | 55% | 1024 hPa | - | - | - | - |
| 1777766531 | 2.22° C | 54% | 1023.8 hPa | - | - | - | - |
| 1777765631 | 2.22° C | 54% | 1024 hPa | - | - | - | - |
| 1777764730 | 2.22° C | 54% | 1024 hPa | - | - | - | - |
| 1777763830 | 2.22° C | 55% | 1024 hPa | - | - | - | - |
| 1777762930 | 1.67° C | 55% | 1024 hPa | - | - | - | - |
| 1777762030 | 2.22° C | 54% | 1023.9 hPa | - | - | - | - |
| 1777761130 | 2.22° C | 54% | 1024 hPa | - | - | - | - |
| 1777760230 | 2.78° C | 54% | 1024.4 hPa | - | - | - | - |
| 1777759329 | 2.22° C | 54% | 1024.7 hPa | - | - | - | - |
| 1777758429 | 2.22° C | 54% | 1024.4 hPa | - | - | - | - |
| 1777757529 | 2.78° C | 54% | 1024.5 hPa | - | - | - | - |
| 1777756629 | 2.78° C | 54% | 1024.6 hPa | - | - | - | - |
| 1777755729 | 2.78° C | 54% | 1024.5 hPa | - | - | - | - |
| 1777754823 | 2.78° C | 54% | 1024.6 hPa | - | - | - | - |
| 1777753923 | 2.22° C | 54% | 1024.6 hPa | - | - | - | - |
| 1777753023 | 2.22° C | 54% | 1024.5 hPa | - | - | - | - |
| 1777752122 | 2.22° C | 55% | 1024.6 hPa | - | - | - | - |
| 1777751222 | 2.22° C | 54% | 1024.4 hPa | - | - | - | - |
| 1777750321 | 1.67° C | 55% | 1024.3 hPa | - | - | - | - |
| 1777749421 | 2.22° C | 55% | 1024.2 hPa | - | - | - | - |
* Rain since midnight (hover to see other rain measurements)
** Current wind speed in m/s (hover to see current wind gust speed)